(199800) = 2000 OD53 = 2003 YR9 = 2006 YF11

Discovered at Palomar on 2006-12-21 by NEAT.

Orbit

Orbit type: Hungaria

Note: WebGL enabled browser required.

epoch2023-09-13.0
epoch JD2460200.5
perihelion date2023-01-04.62493
perihelion JD2459949.12493
argument of perihelion (°)246.92063
ascending node (°)298.44102
inclination (°)19.05153
eccentricity0.0086465
perihelion distance (AU)1.8708116
Tisserand w.r.t. Jupiter3.9
ΔV w.r.t. Earth (km/sec)10.6
semimajor axis (AU)1.8871287
mean anomaly (°)95.57048
mean daily motion (°/day)0.38019080
aphelion distance (AU)1.903
period (years)2.59
P-vector [x]-0.95131587
P-vector [y]0.05573672
P-vector [z]-0.30313616
Q-vector [x]0.11232239
Q-vector [y]-0.85318681
Q-vector [z]-0.50936818
absolute magnitude16.98
phase slope0.15
uncertainty0
referenceMPEC 2024-A34
observations used515
oppositions12
arc length (days)8363
first opposition used2000
last opposition used2023
residual rms (arc-secs)0.72
perturbers coarse indicatorM-v
perturbers precise indicator003Ek
first observation date used2000-07-30.0
last observation date used2023-06-22.0
computer nameMPCLINUX
JD of orbit computation2456966.791360
perihelion JD uncertainty (days)1.9053E-03
argument of perihelion uncertainty (°)7.1906E-04
ascending node uncertainty (°)1.6550E-05
inclination uncertainty (°)1.0520E-05
eccentricity uncertainty 7.9496E-08
perihelion distance uncertainty (AU)1.5001E-07
Minimum Orbit Intersection Distances (in AU)
for orbit epoch: 2460200.5, reference: E2024-A34
Mercury1.422
Venus1.16291
Earth0.87626
Mars0.25477
Jupiter3.1693
Saturn7.1906
Uranus16.6305
Neptune28.0674

Observations

523 total observations over interval: 2000 07 30.30752 – 2023 06 22.876631
These data are available for download (format description).

Date (UT) J2000 RA J2000 Dec Magn Location Ref
2000 07 30.30752 20 57 36.59 -07 57 48.1 18.4   704 – Lincoln Laboratory ETS, New Mexico MPS 17919
2000 07 30.32082 20 57 35.37 -07 57 40.3 18.9   704 – Lincoln Laboratory ETS, New Mexico MPS 17919
2000 07 30.33406 20 57 34.02 -07 57 32.0 18.6   704 – Lincoln Laboratory ETS, New Mexico MPS 17919
2000 08 03.34109 20 51 17.56 -07 19 10.3 19.2 V 691 – Steward Observatory, Kitt Peak-Spacewatch MPS 17919
2000 08 03.38022 20 51 13.76 -07 18 48.4 19.4 V 691 – Steward Observatory, Kitt Peak-Spacewatch MPS 17919
2000 08 03.40233 20 51 11.62 -07 18 36.1 19.5 V 691 – Steward Observatory, Kitt Peak-Spacewatch MPS 17919
2003 12 17.14037 01 33 30.87 +39 57 54.6 19.1   704 – Lincoln Laboratory ETS, New Mexico MPS 94871
2003 12 17.16644 01 33 31.64 +39 57 28.7 19.8   704 – Lincoln Laboratory ETS, New Mexico MPS 94871
2003 12 17.17953 01 33 32.03 +39 57 15.7 19.6   704 – Lincoln Laboratory ETS, New Mexico MPS 94871
2003 12 17.19254 01 33 32.43 +39 57 02.7 19.6   704 – Lincoln Laboratory ETS, New Mexico MPS 94871
2003 12 18.06203 01 34 03.61 +39 42 48.8 19.4   704 – Lincoln Laboratory ETS, New Mexico MPS 96394
2003 12 18.06230 01 34 03.54 +39 42 47.7 19.1   704 – Lincoln Laboratory ETS, New Mexico MPS 94871
2003 12 18.07503 01 34 04.02 +39 42 35.5 19.6   704 – Lincoln Laboratory ETS, New Mexico MPS 96394
2003 12 18.07544 01 34 03.99 +39 42 34.9 19.6   704 – Lincoln Laboratory ETS, New Mexico MPS 94871
2003 12 18.08857 01 34 04.42 +39 42 22.2 19.4   704 – Lincoln Laboratory ETS, New Mexico MPS 94871
2003 12 18.08959 01 34 04.49 +39 42 20.7 19.8   704 – Lincoln Laboratory ETS, New Mexico MPS 96394
2003 12 18.10225 01 34 04.86 +39 42 08.8 19.1   704 – Lincoln Laboratory ETS, New Mexico MPS 94871
2003 12 18.10338 01 34 05.00 +39 42 10.3 20.2   704 – Lincoln Laboratory ETS, New Mexico MPS 96394
2003 12 18.11559 01 34 05.30 +39 41 56.1 20.0   704 – Lincoln Laboratory ETS, New Mexico MPS 94871
2003 12 18.11731 01 34 05.43 +39 41 54.2 19.7   704 – Lincoln Laboratory ETS, New Mexico MPS 96394
2006 12 21.50807 09 38 46.86 +14 41 03.8 19.3 R 644 – Palomar Mountain/NEAT MPS 192695
2006 12 21.51882 09 38 46.66 +14 40 56.4 19.2 R 644 – Palomar Mountain/NEAT MPS 192695
2006 12 21.52957 09 38 46.51 +14 40 48.4 19.5 R 644 – Palomar Mountain/NEAT MPS 192695
2006 12 22.38087 09 38 33.56 +14 30 41.9 19.6   704 – Lincoln Laboratory ETS, New Mexico MPS 192695
2006 12 22.39345 09 38 33.36 +14 30 33.6 19.3   704 – Lincoln Laboratory ETS, New Mexico MPS 192695
2006 12 22.40637 09 38 33.03 +14 30 26.1 19.7   704 – Lincoln Laboratory ETS, New Mexico MPS 192695
2006 12 22.41896 09 38 32.83 +14 30 15.3 19.7   704 – Lincoln Laboratory ETS, New Mexico MPS 192695
2006 12 26.34076 09 37 05.41 +13 43 50.0 19.2 V 703 – Catalina Sky Survey MPS 192695
2006 12 26.35165 09 37 04.98 +13 43 42.7 19.4 V 703 – Catalina Sky Survey MPS 192695
2006 12 26.36253 09 37 04.76 +13 43 35.6 19.6 V 703 – Catalina Sky Survey MPS 192695
2006 12 27.35034 09 36 35.89 +13 31 55.5 19.5 V G96 – Mt. Lemmon Survey MPS 192695
2006 12 27.35755 09 36 35.64 +13 31 50.5 19.4 V G96 – Mt. Lemmon Survey MPS 192695
2006 12 27.36485 09 36 35.42 +13 31 45.4 19.5 V G96 – Mt. Lemmon Survey MPS 192695
2006 12 27.37214 09 36 35.17 +13 31 40.4 19.4 V G96 – Mt. Lemmon Survey MPS 192695
2007 01 09.44852 09 25 56.92 +10 59 47.8 19.1 V 703 – Catalina Sky Survey MPS 212032
2007 01 09.45333 09 25 56.53 +10 59 43.3 19.2 V 703 – Catalina Sky Survey MPS 212032
2007 01 09.45817 09 25 56.28 +10 59 38.9 18.6 V 703 – Catalina Sky Survey MPS 212032
2007 01 09.46301 09 25 55.88 +10 59 36.7 19.3 V 703 – Catalina Sky Survey MPS 212032
2007 01 25.29772 09 03 57.24 +08 08 41.2 18.7 V 703 – Catalina Sky Survey MPS 212032
2007 01 25.31815 09 03 55.29 +08 08 29.3 18.8 V 703 – Catalina Sky Survey MPS 212032
2007 01 25.32837 09 03 54.25 +08 08 23.4 18.9 V 703 – Catalina Sky Survey MPS 212032
2007 02 17.25679 08 28 10.05 +04 57 36.5 19.1 V 703 – Catalina Sky Survey MPS 212032
2007 02 17.26325 08 28 09.44 +04 57 34.4 19.1 V 703 – Catalina Sky Survey MPS 212032
2007 02 17.26971 08 28 08.94 +04 57 31.6 19.0 V 703 – Catalina Sky Survey MPS 212032
2007 02 17.27617 08 28 08.43 +04 57 29.1 18.9 V 703 – Catalina Sky Survey MPS 212032
2007 02 23.18164 08 21 02.05 +04 22 38.4 18.6 V 703 – Catalina Sky Survey MPS 212032
2007 02 23.18809 08 21 01.69 +04 22 35.1 18.9 V 703 – Catalina Sky Survey MPS 212032
2007 02 23.19450 08 21 01.26 +04 22 32.9 18.7 V 703 – Catalina Sky Survey MPS 212032
2007 02 23.20095 08 21 00.79 +04 22 32.2 19.1 V 703 – Catalina Sky Survey MPS 212032
2008 09 24.19352 23 04 08.76 +31 49 40.5 18.8 V 703 – Catalina Sky Survey MPS 256760
2008 09 24.20162 23 04 08.11 +31 49 39.2 18.9 V 703 – Catalina Sky Survey MPS 256760
2008 09 24.21780 23 04 06.74 +31 49 35.4 19.0 V 703 – Catalina Sky Survey MPS 256760
2008 09 30.24399 22 56 15.57 +31 23 15.7 18.6 V 703 – Catalina Sky Survey MPS 258010
2008 09 30.24760 22 56 15.21 +31 23 15.1 18.6 V 703 – Catalina Sky Survey MPS 258010
2008 09 30.25125 22 56 14.96 +31 23 13.1 18.9 V 703 – Catalina Sky Survey MPS 258010
2008 09 30.25484 22 56 14.78 +31 23 12.4 18.8 V 703 – Catalina Sky Survey MPS 258010
2008 10 10.23418 22 46 02.71 +30 09 30.2 19.9 V 703 – Catalina Sky Survey MPS 259312
2008 10 10.24297 22 46 02.31 +30 09 24.3 19.7 V 703 – Catalina Sky Survey MPS 259312
2008 10 10.25182 22 46 01.84 +30 09 18.7 19.0 V 703 – Catalina Sky Survey MPS 259312
2008 10 10.26069 22 46 01.41 +30 09 14.5 19.2 V 703 – Catalina Sky Survey MPS 259312
2008 10 31.08339 22 39 17.96 +26 44 29.1 19.8 V 703 – Catalina Sky Survey MPS 263277
2008 10 31.09066 22 39 18.00 +26 44 25.4 20.0 V 703 – Catalina Sky Survey MPS 263277
2008 10 31.09801 22 39 18.14 +26 44 22.0 20.1 V 703 – Catalina Sky Survey MPS 263277
2008 10 31.10525 22 39 18.07 +26 44 16.5 19.4 V 703 – Catalina Sky Survey MPS 263277
2008 11 04.14554 22 40 18.75 +26 05 34.8 19.5   704 – Lincoln Laboratory ETS, New Mexico MPS 263277
2008 11 04.15734 22 40 18.96 +26 05 27.0 19.8   704 – Lincoln Laboratory ETS, New Mexico MPS 263277
2008 11 04.16920 22 40 19.14 +26 05 21.4 19.8   704 – Lincoln Laboratory ETS, New Mexico MPS 263277
2008 11 04.18111 22 40 19.31 +26 05 14.0 19.8   704 – Lincoln Laboratory ETS, New Mexico MPS 263277
2011 12 04.32433 07 02 20.56 +42 38 54.8 18.8   704 – Lincoln Laboratory ETS, New Mexico MPS 403609
2011 12 04.33710 07 02 19.56 +42 38 52.0 19.4   704 – Lincoln Laboratory ETS, New Mexico MPS 403609
2011 12 04.35001 07 02 18.58 +42 38 49.5 19.3   704 – Lincoln Laboratory ETS, New Mexico MPS 403609
2011 12 04.36279 07 02 17.66 +42 38 46.5 19.7   704 – Lincoln Laboratory ETS, New Mexico MPS 403609
2011 12 16.26255 06 44 40.95 +41 29 05.5 19.5   704 – Lincoln Laboratory ETS, New Mexico MPS 404577
2011 12 16.27581 06 44 39.60 +41 28 58.2 19.2   704 – Lincoln Laboratory ETS, New Mexico MPS 404577
2011 12 16.28898 06 44 38.17 +41 28 52.5 19.3   704 – Lincoln Laboratory ETS, New Mexico MPS 404577
2011 12 16.30217 06 44 36.71 +41 28 46.8 19.3   704 – Lincoln Laboratory ETS, New Mexico MPS 404577
2011 12 16.31536 06 44 35.33 +41 28 39.8 19.9   704 – Lincoln Laboratory ETS, New Mexico MPS 404577
2011 12 19.81503 06 38 24.83 +40 57 21.8 18.9 R D29 – Purple Mountain Observatory, XuYi Station MPS 404577
2011 12 19.83101 06 38 23.20 +40 57 12.3 19.6 R D29 – Purple Mountain Observatory, XuYi Station MPS 404577
2011 12 19.84699 06 38 21.39 +40 57 02.8 19.7 R D29 – Purple Mountain Observatory, XuYi Station MPS 404577
2012 02 09.37186 05 41 34.239 +27 41 59.80 19.4 z F51 – Pan-STARRS 1, Haleakala MPS 412744
2012 02 09.38390 05 41 34.291 +27 41 49.32 19.3 z F51 – Pan-STARRS 1, Haleakala MPS 412744
2013 06 18.38655 22 01 22.08 -10 57 36.0 20.3 V 703 – Catalina Sky Survey MPS 471101
2013 06 18.39223 22 01 22.04 -10 57 31.2 19.8 V 703 – Catalina Sky Survey MPS 471101
2013 06 18.39787 22 01 22.11 -10 57 27.8 19.4 V 703 – Catalina Sky Survey MPS 471101
2013 06 18.40251 22 01 22.15 -10 57 22.5 19.6 V G96 – Mt. Lemmon Survey MPS 471101
2013 06 18.40358 22 01 22.22 -10 57 21.1 20.0 V 703 – Catalina Sky Survey MPS 471101
2013 06 18.41023 22 01 22.18 -10 57 16.2 19.4 V G96 – Mt. Lemmon Survey MPS 471101
2013 06 18.41799 22 01 22.22 -10 57 09.5 19.5 V G96 – Mt. Lemmon Survey MPS 471101
